Location: Banff
(51.1667°N, 115.5667°W)
Time: 07:39:17
(UTC+00:00)

S-56A Canister/Altair - Pass Details

Date: 29 November 2020
Orbit: 633 x 2499 km, 38.9° (Epoch: 21 January)

Event Time Altitude Azimuth Distance (km) Brightness Sun altitude
Rises 05:43:14 0° 254° (WSW) 4,949 11.9 -53.8°
Enters shadow 05:46:21 - 249° (WSW) 3,949 11.3 -54.1°
Reaches altitude 10° 05:47:21 10° 246° (WSW) 3,628 - -54.2°
Maximum altitude 05:54:43 31° 189° (S) 1,861 - -55.0°
Drops below altitude 10° 06:00:02 10° 129° (SE) 2,567 - -55.5°
Sets 06:02:27 0° 118° (ESE) 3,325 - -55.8°
